Regional Weather Roundup
Issued by NWS

Home | Current Version | Previous Version | Graphics & Text | Print | Product List | Glossary On
Versions: 1 2 3 4 5 6 7 8 9 10 11 12 13 14 15 16 17 18 19 20 21 22 23 24 25 26 27 28 29 30 31 32 33 34 35 36 37 38 39 40 41 42 43 44 45 46 47 48 49 50
256
ASUS43 KLSX 261259
RWRMO

WEATHER SUMMARY FOR MISSOURI
NATIONAL WEATHER SERVICE SPRINGFIELD MO
800 AM CDT WED JUL 26 2017

NOTE: "FAIR" INDICATES FEW OR NO CLOUDS BELOW 12,000 FEET WITH NO
       SIGNIFICANT WEATHER AND/OR OBSTRUCTIONS TO VISIBILITY.
       CURRENT SKY AND/OR WEATHER CONDITIONS ARE NOT AVAILABLE FOR
       CHILLICOTHE AND FARMINGTON.

MOZ001>031-035>038-043-044-053-054-261400-
...NORTHERN AND WESTERN MISSOURI...

CITY           SKY/WX    TMP DP  RH WIND       PRES   REMARKS
KANSAS CTY INT CLOUDY    80  74  81 S10       29.99F
KANSAS C DTWN  CLOUDY    82  74  76 S9        29.97F
LEE`S SUMMIT   CLOUDY    79  75  87 S8        30.01F
ST JOSEPH      CLOUDY    78  75  90 S5        29.98S
CHILLICOTHE      N/A     77  73  87 SE3       30.02S
KIRKSVILLE     CLOUDY    75  73  93 S6        30.04F

$$
MOZ066>068-077>081-088>096-101>105-261400-
...SOUTHWEST MISSOURI...

CITY           SKY/WX    TMP DP  RH WIND       PRES   REMARKS
SPRINGFIELD    SUNNY     78  74  87 SW8       30.08F
JOPLIN         CLOUDY    82  74  76 S12       30.05F
BRANSON        PTSUNNY   81  72  74 S6        30.12R

$$
MOZ032>034-039>042-045>050-055>058-069>072-261400-
...CENTRAL MISSOURI...

CITY           SKY/WX    TMP DP  RH WIND       PRES   REMARKS
COLUMBIA       SUNNY     79  73  82 SW5       30.05R
JEFFERSON CITY SUNNY     77  74  90 CALM      30.04R
ROLLA          MOSUNNY   78  71  79 SW8       30.09R
SEDALIA        CLOUDY    80  75  84 S7        30.05S
WHITEMAN AFB   PTSUNNY   80  80 100 SW12      30.02F
WARRENSBURG    MOSUNNY   77  72  83 S6        30.02S
OSAGE BEACH    SUNNY     80  72  76 SW6       30.07R

$$
MOZ051-052-059>065-261400-
...EAST CENTRAL MISSOURI...

CITY           SKY/WX    TMP DP  RH WIND       PRES   REMARKS
ST LOUIS INTL  PTSUNNY   81  73  76 SE7       30.05S
SPIRIT OF STL  SUNNY     79  75  87 CALM      30.03S
ST CHARLES     SUNNY     77  73  87 E7        30.03S

$$
MOZ072>076-082>087-097>100-106>115-261400-
...SOUTH CENTRAL AND SOUTHEAST MISSOURI...

CITY           SKY/WX    TMP DP  RH WIND       PRES   REMARKS
CAPE GIRARDEAU SUNNY     80  76  87 S3        30.06R
FARMINGTON     SUNNY     80  75  84 S7        30.08R
POPLAR BLUFF   SUNNY     79  77  94 SW3       30.06S
WEST PLAINS    SUNNY     79  73  82 W6        30.11R

$$




USA.gov is the U.S. government's official web portal to all federal, state and local government web resources and services.